Theta_e
286 287 287 287 286 286 287 288 288 289 289 290 290 291 292 294 295 295 294 295 294 295 296 296 297 297 297 299 302 306 309 311 312 313 314 314 313 312 311 310 310 310 309 309 307 306 304 303 302 300 299 299 299 298 298 297 297 298 297 296 296 296
285 285 285 285 285 285 286 286 287 287 288 289 289 290 292 293 294 294 293 294 294 294 295 296 296 296 296 296 298 302 306 311 312 312 312 313 313 313 312 310 309 309 308 309 307 305 304 303 302 300 299 299 299 298 298 296 296 296 295 295 295 293
284 285 285 285 285 285 285 285 286 286 287 288 289 289 290 291 293 293 293 294 294 294 294 295 295 295 296 295 296 297 303 309 310 312 311 312 312 313 311 309 309 309 308 308 306 305 304 303 302 301 299 298 298 298 297 295 295 294 295 294 292 292
284 284 285 285 285 285 285 285 286 286 286 287 288 289 290 291 292 293 293 293 293 293 294 294 295 295 295 294 295 295 299 305 311 311 311 310 311 312 311 310 309 308 308 308 306 305 304 303 301 300 299 298 296 295 296 294 294 294 294 292 292 291
283 284 284 284 284 284 284 285 285 286 286 287 288 288 289 290 291 293 293 293 293 293 294 294 294 294 294 293 294 294 295 300 307 310 310 310 310 310 311 310 309 307 307 307 306 304 304 302 302 300 299 298 297 295 295 294 294 293 293 291 291 291
283 283 283 284 284 284 285 285 285 285 286 286 287 287 288 289 291 292 293 293 292 293 293 293 293 293 293 292 293 293 294 295 303 307 309 309 309 309 309 310 309 308 306 305 305 304 303 301 301 300 300 299 297 295 294 294 294 294 293 292 292 291
282 282 283 283 284 284 285 285 285 285 285 286 287 287 288 289 290 291 292 292 292 292 292 292 293 292 292 292 292 292 293 294 297 305 307 308 308 308 309 308 309 308 306 306 304 302 302 301 301 299 299 299 298 296 295 294 294 294 294 293 292 291
282 282 282 283 284 284 284 285 285 285 285 286 287 287 288 288 289 290 291 291 291 291 291 292 292 292 292 291 291 292 293 293 294 302 305 307 305 306 308 307 307 306 306 305 304 303 301 301 301 300 299 299 298 297 296 295 294 294 294 293 292 291
281 282 282 283 283 283 284 284 284 284 285 285 286 287 287 287 288 289 290 290 290 290 290 290 291 292 291 291 291 291 292 292 293 297 303 303 303 303 303 305 305 305 306 305 305 303 302 301 300 300 300 299 298 298 296 295 294 294 294 293 292 292
277 277 278 278 279 279 279 280 282 283 284 285 286 287 286 287 288 288 289 289 288 288 289 289 290 291 291 291 291 291 292 292 292 295 300 301 303 303 303 303 303 304 305 306 305 304 303 301 299 299 299 299 299 297 296 294 292 292 292 292 292 292
273 273 273 274 275 275 276 278 279 280 281 283 285 286 286 286 286 287 287 287 287 286 287 288 290 291 291 290 290 290 291 291 292 293 297 298 302 302 303 303 304 303 303 304 304 303 302 302 300 300 299 298 296 295 294 293 292 292 291 291 291 291
271 271 271 272 272 271 272 274 276 277 278 280 281 283 285 285 285 285 285 285 285 285 286 287 289 290 290 289 289 289 290 290 291 292 294 295 299 301 300 301 302 302 302 302 302 302 303 303 303 298 297 297 296 294 294 293 293 292 291 291 290 290
270 270 271 271 271 270 271 271 272 273 273 275 277 280 282 283 283 283 283 284 285 285 285 286 288 289 288 288 288 288 289 289 290 291 292 294 295 296 298 300 300 300 301 300 300 299 300 302 302 297 298 298 297 297 294 293 293 292 292 291 290 289
269 269 269 270 270 270 270 270 271 271 272 274 276 278 280 281 282 283 283 283 283 284 284 286 287 287 287 287 287 288 288 289 289 290 291 293 294 294 296 298 299 300 300 301 300 300 298 298 297 298 298 298 298 296 294 294 293 292 292 291 291 291
269 269 269 269 269 269 270 270 270 271 272 273 274 277 277 278 279 279 280 281 281 282 284 286 285 285 286 286 287 288 288 288 289 289 290 292 294 294 294 296 297 298 299 298 298 299 300 299 297 298 298 298 298 297 296 294 293 293 293 292 291 291
268 268 268 269 269 269 270 270 271 271 273 273 274 275 275 277 278 279 280 281 282 284 284 284 285 285 286 287 287 288 288 288 288 289 291 293 293 293 293 294 295 296 297 298 298 297 297 298 297 298 297 297 297 297 296 293 293 293 292 292 291 291
268 267 267 268 268 269 270 270 271 271 272 273 273 274 274 275 276 277 278 279 280 281 283 284 285 285 286 287 287 287 288 288 289 289 291 293 292 293 293 294 294 294 294 294 296 297 295 296 296 298 297 297 297 297 296 293 293 293 292 292 292 291
266 266 267 269 269 269 270 270 271 271 271 273 273 274 274 275 276 277 278 279 280 281 282 284 285 286 286 287 287 287 288 288 288 289 291 292 293 293 294 294 294 293 293 293 293 294 295 296 296 297 297 297 298 297 295 293 292 292 292 291 291 291
267 267 268 269 269 269 270 271 271 271 271 272 272 273 274 274 275 276 277 279 281 282 283 285 285 286 286 286 287 287 287 288 288 289 291 291 292 292 292 293 293 294 293 292 292 293 294 294 295 296 296 297 297 296 295 294 293 293 291 291 291 291
268 268 269 269 269 270 271 272 272 271 271 271 272 272 273 274 274 275 276 277 279 281 283 285 285 285 286 286 287 287 288 288 289 289 291 291 291 291 292 293 293 293 293 292 292 293 293 292 293 296 296 296 297 295 295 294 294 292 292 291 290 291
267 268 268 268 268 270 271 272 272 271 270 271 272 272 272 273 274 274 275 276 278 281 282 284 285 286 286 287 287 287 287 288 288 290 290 291 291 291 292 292 293 292 292 292 292 291 293 292 292 294 296 296 296 295 294 295 294 292 292 292 291 291
267 266 266 267 268 269 269 271 271 271 271 271 272 272 272 273 274 275 276 276 277 279 281 283 285 286 286 286 287 287 288 288 289 289 290 290 292 292 292 292 292 291 292 291 291 291 292 293 292 292 295 296 296 296 294 294 293 292 291 291 291 290
266 265 266 267 268 268 269 270 270 271 271 272 272 272 273 275 275 276 276 277 278 280 281 282 284 285 286 286 286 287 288 288 289 289 289 289 291 291 291 291 291 291 291 291 291 291 291 292 292 291 294 295 295 296 294 294 293 293 292 291 290 291
264 265 265 267 267 268 268 268 268 269 271 272 272 273 275 275 276 276 276 277 278 280 282 283 284 285 286 286 287 287 287 288 288 289 289 290 290 289 290 290 291 291 291 291 291 291 291 291 291 291 293 294 295 295 294 294 292 292 292 291 290 290
263 263 264 265 266 266 266 267 267 268 269 269 272 275 276 276 276 277 277 278 278 279 280 280 282 283 285 286 286 287 287 288 288 288 289 289 289 289 289 289 290 290 291 290 291 291 291 291 291 292 291 293 295 295 295 294 293 294 292 292 290 290
262 263 263 264 265 265 265 266 266 267 267 268 271 273 275 278 279 278 278 278 279 279 280 281 282 283 284 285 286 287 287 287 288 288 289 289 289 289 289 290 290 290 290 290 290 290 291 291 292 291 291 292 294 295 295 295 294 294 292 292 292 291
261 262 262 263 263 264 265 265 265 265 265 267 269 270 272 275 276 278 280 280 280 280 280 281 282 283 285 286 287 287 287 287 287 288 288 288 289 289 289 290 290 290 290 290 289 289 290 290 291 290 291 291 293 294 295 294 294 294 293 292 292 291
261 261 261 262 263 263 264 264 265 264 265 267 268 269 271 273 273 275 277 281 282 282 283 283 283 285 286 286 287 287 288 288 288 288 288 288 289 289 289 289 289 290 290 290 290 289 289 289 289 289 290 290 291 292 293 294 293 293 292 292 292 290
260 260 260 260 262 263 263 263 264 264 265 266 267 268 270 271 271 273 275 278 282 285 285 284 285 285 286 286 287 287 288 288 288 288 288 288 289 289 289 289 289 289 289 289 289 289 288 288 289 289 289 290 291 292 292 293 292 291 291 290 290 290
259 259 259 260 261 262 262 263 263 264 265 266 267 268 269 269 271 272 273 276 278 281 285 286 285 285 286 286 287 287 287 288 288 288 288 288 289 289 289 289 289 289 289 289 289 288 288 288 288 288 289 289 290 291 292 292 292 291 291 291 290 289
259 259 259 260 261 261 261 262 263 263 264 265 266 266 266 267 269 271 272 274 277 280 283 285 286 286 286 287 287 287 288 288 288 288 289 289 290 290 290 290 290 290 290 290 290 288 287 287 287 288 290 289 291 290 291 291 291 291 291 291 290 288
259 259 259 260 260 260 261 261 262 263 264 264 265 265 265 266 268 269 272 274 277 279 282 284 286 286 286 287 287 287 287 288 289 290 289 289 289 290 291 292 290 290 290 290 290 290 289 288 288 290 290 290 291 291 292 292 292 292 291 291 291 289
259 259 259 259 260 260 260 261 261 262 263 263 264 264 265 266 268 270 272 275 277 279 281 283 285 286 286 287 287 287 287 287 288 290 290 290 289 290 290 291 292 291 291 290 290 289 291 290 290 290 290 290 291 291 292 292 292 292 291 291 289 287
258 258 259 259 259 259 260 260 261 261 262 263 263 264 265 266 268 271 274 277 278 280 281 283 285 285 286 287 287 287 287 287 286 287 289 290 290 290 290 291 291 291 291 291 291 289 289 290 290 290 290 290 290 291 291 291 292 292 291 291 290 287
258 259 259 258 258 259 259 259 260 261 261 262 263 264 265 268 272 274 277 281 282 281 282 283 284 285 286 286 286 286 287 287 286 286 286 288 290 290 290 291 291 291 291 291 291 291 290 289 289 290 290 290 290 290 291 291 292 292 291 291 288 288
258 258 258 258 258 258 258 259 259 260 261 261 262 264 268 270 271 273 276 277 280 283 283 284 285 285 286 286 287 287 287 287 287 287 287 286 286 287 289 290 291 291 291 291 291 290 290 290 290 289 289 289 290 290 291 291 290 292 291 289 288 288
258 258 258 257 257 257 258 258 259 260 260 261 262 264 266 269 270 271 274 276 277 280 283 285 285 285 286 286 286 286 286 287 287 287 287 286 286 285 285 286 288 289 290 289 289 290 290 289 289 289 289 289 290 290 291 291 289 288 288 288 288 288
257 257 257 256 256 257 257 257 259 259 260 260 262 264 265 268 269 269 270 272 274 276 279 281 284 285 285 285 286 286 286 286 286 286 286 286 285 285 285 285 285 286 288 289 289 289 289 289 289 289 289 289 290 290 291 288 287 287 286 286 287 287
Wind_Speed
20 19 19 18 18 18 15 15 14 13 13 15 15 16 15 14 12 10 9 9 10 11 15 16 16 17 18 18 18 18 18 17 16 19 18 19 18 17 17 16 18 19 18 17 16 16 18 19 18 17 15 16 12 12 12 11 12 12 12 11 13 12
22 21 20 19 19 18 17 15 13 14 15 16 16 16 13 13 12 11 10 10 10 13 14 14 14 15 16 18 19 18 19 18 16 16 18 20 20 20 21 17 17 19 19 17 16 16 17 19 18 18 18 16 14 14 11 12 14 14 13 12 11 10
24 23 21 19 17 16 16 14 14 15 15 16 17 16 16 13 12 11 10 9 10 11 14 15 14 15 15 17 20 20 19 17 14 13 13 14 17 18 19 20 19 19 20 19 17 18 17 18 18 17 16 16 16 14 15 14 15 16 13 12 12 10
24 23 21 20 17 17 18 18 16 17 18 17 17 15 13 14 12 11 11 9 8 10 13 14 13 13 13 16 18 20 20 19 16 17 15 17 17 20 21 21 18 17 19 20 18 18 17 17 18 18 17 17 16 15 11 13 15 15 14 13 14 13
24 23 23 22 22 20 19 19 18 17 18 17 16 15 15 13 13 11 10 10 10 10 11 12 13 13 14 15 15 18 21 22 17 14 19 17 16 15 19 21 20 19 17 20 19 17 18 18 17 17 18 18 19 18 16 15 17 17 16 16 16 15
20 22 21 21 19 19 20 20 19 17 17 16 16 17 17 13 11 11 10 10 10 10 11 12 12 13 13 14 13 17 20 21 20 13 15 20 18 19 17 18 20 20 20 16 18 20 18 18 17 16 17 20 19 18 18 18 17 17 17 19 18 17
25 21 21 21 21 21 20 20 19 17 17 16 16 17 16 13 10 10 10 10 11 10 10 12 12 12 13 13 13 16 18 19 21 14 13 12 16 20 19 19 20 20 21 21 17 16 17 19 18 17 16 16 18 19 18 18 18 18 19 18 18 18
23 22 21 20 22 22 20 19 18 17 17 17 15 16 15 13 11 10 10 9 9 10 11 12 12 12 13 12 13 14 15 17 20 17 13 15 14 14 19 20 18 19 21 21 21 18 16 16 19 19 18 17 17 18 18 17 18 18 19 18 17 17
26 23 21 21 22 21 20 19 19 18 17 17 16 15 15 13 11 11 9 9 9 9 10 12 12 12 11 11 12 12 14 16 18 19 14 12 15 15 12 17 20 18 21 21 21 21 19 16 16 18 19 17 17 18 19 18 17 17 16 17 18 18
28 28 27 25 23 25 25 23 22 22 19 18 16 14 12 10 11 11 10 9 9 9 11 13 13 12 11 11 11 12 13 14 16 18 14 12 16 17 17 17 17 17 17 19 19 18 19 20 17 14 16 17 17 17 18 18 18 16 14 15 17 18
26 29 29 27 26 26 25 23 22 21 22 21 17 15 14 14 13 11 9 10 12 12 12 14 13 11 11 11 12 12 13 14 15 17 14 11 15 17 19 18 18 17 17 17 18 18 17 18 18 17 17 16 16 14 15 17 19 18 17 15 15 16
25 24 27 26 24 25 26 25 22 22 21 20 20 20 18 16 16 14 15 16 17 16 16 16 15 12 10 11 12 13 13 13 14 15 14 11 11 17 16 17 17 17 17 16 17 18 18 19 16 20 26 22 17 15 13 13 16 18 17 16 15 15
29 26 26 27 27 28 25 23 20 19 22 22 23 21 21 18 22 24 26 26 23 20 19 17 15 10 11 11 13 12 13 13 12 14 13 12 10 11 17 16 17 17 17 16 15 15 15 15 15 28 27 27 27 20 16 15 14 16 16 15 16 15
30 29 29 28 28 27 25 25 25 24 23 22 20 18 18 18 20 19 20 20 21 21 20 18 12 10 11 12 13 13 12 12 12 13 13 11 11 10 11 17 18 17 15 15 17 15 13 11 14 25 29 30 29 23 17 17 16 15 15 16 16 14
30 28 30 28 26 26 27 26 25 24 23 23 22 18 19 18 19 20 23 24 23 23 20 11 9 11 13 13 13 12 11 12 12 13 13 12 11 11 12 15 16 16 16 15 13 16 18 16 16 18 26 28 28 29 23 14 15 16 15 16 17 16
26 26 28 29 30 28 27 24 25 24 22 21 20 20 20 20 17 18 17 16 15 12 9 11 11 13 13 12 11 11 12 11 12 13 12 11 10 11 12 12 14 14 16 17 16 12 10 13 24 28 25 24 27 29 24 15 16 16 17 18 17 16
32 32 31 28 27 29 27 25 22 23 23 22 21 17 18 17 21 18 20 18 19 17 14 12 13 13 12 11 11 12 12 11 11 13 11 10 11 12 13 13 13 12 11 12 14 16 13 10 18 26 30 29 25 24 22 15 16 15 15 17 18 18
29 29 32 31 28 25 27 27 24 23 24 22 21 19 16 17 17 19 16 18 15 17 16 14 13 12 11 11 11 12 12 11 11 12 10 10 10 11 11 11 12 13 14 12 11 11 14 15 21 21 25 30 31 30 17 12 14 15 14 14 15 16
29 32 30 28 29 28 26 28 26 23 23 22 21 21 19 16 17 17 18 16 16 14 13 12 12 12 11 11 11 12 11 11 12 11 9 10 10 10 11 12 13 14 15 15 13 13 12 12 22 27 24 24 29 26 17 16 13 13 14 14 14 14
28 28 27 29 30 29 27 26 27 25 23 23 21 21 20 17 17 17 17 17 15 17 14 11 11 11 11 11 11 11 11 10 9 11 9 10 10 11 12 11 11 11 12 15 15 15 12 10 17 27 29 28 26 23 19 16 14 13 13 11 12 12
28 27 27 27 28 28 28 26 22 22 24 22 22 20 20 19 17 15 17 18 18 17 17 16 13 11 11 11 11 10 11 10 10 10 8 9 10 11 9 9 10 10 10 13 15 18 17 12 13 21 25 28 29 23 15 15 15 14 13 12 12 11
29 30 29 28 28 28 29 27 24 24 24 21 20 20 20 20 19 18 16 18 18 17 15 12 12 12 11 11 10 10 10 9 8 9 9 9 9 9 10 11 11 12 11 11 12 13 16 15 14 18 23 25 28 29 18 13 14 15 15 13 13 12
24 24 27 26 27 26 25 24 24 25 21 20 19 20 19 19 17 16 17 16 17 16 15 14 13 14 12 10 10 10 10 9 9 9 9 9 8 9 10 12 11 12 12 11 12 12 13 13 15 17 25 24 25 27 23 14 16 14 13 13 12 13
28 28 28 26 26 25 23 23 25 25 24 21 20 20 18 16 15 15 15 15 16 15 13 13 12 11 10 10 10 10 10 9 8 8 8 8 8 10 11 11 11 11 11 10 11 12 13 13 17 14 22 27 28 27 27 15 14 14 13 12 12 12
27 28 28 26 25 23 23 23 26 24 23 23 25 22 17 15 13 12 14 14 14 14 15 15 14 13 10 11 11 11 11 9 8 8 8 9 10 11 12 12 11 11 10 10 9 10 11 11 13 19 18 24 26 28 29 26 18 22 17 16 15 14
26 26 26 25 23 23 22 21 23 24 26 26 23 23 21 20 17 14 13 13 14 15 14 13 13 14 13 13 11 10 10 9 7 7 8 9 9 9 11 10 11 11 11 11 10 9 9 10 10 15 20 21 26 25 27 25 23 24 17 15 14 14
28 28 28 25 26 24 22 19 22 27 28 26 23 22 22 21 20 18 14 13 13 13 13 12 12 12 12 11 10 9 9 9 7 7 7 8 9 9 10 10 10 12 11 11 11 10 9 9 9 9 15 22 24 26 26 26 25 24 22 15 12 13
26 26 28 29 27 25 22 21 20 24 26 25 23 22 20 20 21 20 18 15 12 13 12 12 12 12 12 11 9 9 9 9 7 7 7 8 9 9 10 10 10 11 11 11 10 10 10 9 9 9 10 13 19 21 26 27 25 24 23 19 13 17
26 27 29 29 28 25 24 25 22 21 22 22 22 22 21 20 19 19 17 15 15 11 10 11 9 9 9 9 8 8 8 8 7 7 8 8 9 10 10 10 11 11 11 11 10 9 9 10 10 10 10 11 12 12 16 20 19 22 20 14 10 13
27 28 28 26 27 26 25 23 23 24 23 22 21 21 21 21 19 18 17 17 14 12 11 9 11 11 9 8 7 7 7 7 7 7 8 9 9 10 10 10 10 11 11 10 9 9 9 10 10 11 12 12 12 11 11 12 12 12 12 11 9 10
27 27 26 25 25 25 24 25 24 24 25 22 22 21 21 19 20 18 18 16 13 12 11 10 8 8 8 8 7 7 8 8 8 8 8 8 8 9 10 9 8 8 8 9 10 11 11 10 12 12 11 12 15 14 13 12 13 12 11 14 16 12
24 26 26 23 24 24 24 25 25 24 22 22 20 20 19 20 18 17 15 13 12 12 11 9 8 8 8 8 7 7 7 9 12 10 9 8 11 15 15 13 10 8 7 8 8 10 12 12 8 11 17 19 22 23 24 20 20 19 17 19 25 19
26 25 26 25 25 24 23 24 24 24 25 24 23 21 19 17 14 13 13 13 11 12 11 9 8 7 7 8 8 8 8 6 8 14 16 13 12 14 16 17 15 15 15 12 8 7 10 12 19 23 23 22 23 24 24 24 24 24 21 21 16 12
27 24 25 25 24 24 23 25 25 25 25 25 24 20 17 16 13 11 11 11 11 11 11 9 8 8 8 8 7 8 7 7 6 6 12 15 13 14 16 16 16 17 18 17 15 12 9 15 19 20 21 22 22 22 21 21 22 23 24 25 24 15
22 21 22 24 24 23 23 24 24 24 25 24 21 20 17 15 12 13 13 15 9 8 8 8 8 7 7 7 7 7 7 7 7 7 6 7 11 14 15 15 15 16 17 19 17 17 15 15 19 23 23 22 22 22 22 22 23 24 25 26 18 16
21 18 21 21 25 23 22 23 22 23 23 22 20 20 22 22 18 17 15 15 16 11 7 7 7 7 7 6 6 6 6 6 6 6 6 7 6 5 9 14 17 17 17 17 17 16 16 17 21 22 23 23 23 23 21 21 19 23 26 25 18 16
20 19 23 24 22 21 21 21 24 26 26 23 22 26 20 21 20 17 20 29 22 13 12 7 5 4 4 3 4 4 5 5 5 5 6 6 7 7 7 5 4 7 12 11 11 14 17 19 21 22 22 22 22 22 22 20 13 15 15 17 13 13
20 20 21 21 21 20 21 23 25 27 25 23 25 27 22 18 19 17 16 16 19 16 12 12 11 7 4 2 2 3 3 4 4 4 5 5 5 6 7 5 4 3 6 12 11 14 17 19 20 21 22 21 23 22 23 15 14 13 13 13 12 11
Wind_Direction
302 297 290 287 286 282 279 282 285 287 292 297 292 285 282 283 290 296 303 314 317 315 312 314 318 321 320 319 312 296 273 233 206 197 193 188 184 178 180 186 183 179 181 183 182 176 173 172 171 165 168 170 174 177 179 173 168 173 177 178 176 184
300 297 292 287 284 282 279 277 280 283 292 296 290 282 273 275 279 281 291 301 308 308 307 308 312 318 320 322 323 311 288 244 213 197 195 191 184 184 180 179 184 179 180 182 179 178 178 175 172 170 168 171 178 176 174 173 169 172 177 173 181 174
300 298 293 285 278 273 273 271 274 283 291 290 284 278 277 270 270 274 274 284 298 305 306 308 314 318 321 322 322 318 301 270 231 206 193 188 190 183 177 178 182 181 179 180 178 180 180 177 173 171 169 173 174 177 174 170 172 173 175 169 176 178
294 291 290 288 281 277 275 272 275 283 287 284 281 275 267 271 270 268 271 275 284 299 304 306 307 312 317 320 322 319 313 292 236 207 194 190 193 183 179 179 179 180 178 178 181 181 179 179 175 171 169 172 170 173 172 169 173 175 171 167 177 179
291 288 285 285 285 280 275 274 275 279 281 279 276 270 264 257 263 263 265 273 284 295 300 301 305 309 315 318 320 318 317 308 270 219 187 190 188 194 184 176 175 175 183 180 176 179 179 179 178 175 173 173 172 172 172 172 174 175 172 174 180 179
286 289 289 287 285 284 280 277 277 276 276 274 272 269 263 256 254 258 260 265 276 288 295 298 299 304 309 315 317 314 313 312 293 234 209 185 179 184 186 180 177 173 175 187 180 177 179 178 178 180 181 175 172 172 173 173 175 176 178 179 179 177
295 290 289 288 287 287 285 282 279 277 274 271 270 268 263 257 248 251 251 257 271 282 290 293 296 298 304 310 312 312 309 308 304 257 207 192 185 182 181 181 178 177 178 177 181 182 180 178 176 179 184 184 176 174 175 176 177 178 181 183 180 175
295 292 291 290 289 289 288 286 282 279 273 270 265 265 263 257 258 245 249 253 266 281 289 292 293 294 299 304 308 307 306 304 305 279 228 188 182 188 180 177 179 179 180 179 177 178 181 183 176 177 183 185 182 176 178 177 178 180 181 181 178 177
299 306 313 319 319 318 317 313 304 291 281 274 267 261 259 262 262 254 246 255 264 280 289 292 291 291 292 298 300 302 301 302 301 292 243 199 177 176 184 179 180 184 181 180 176 177 177 183 182 177 179 184 184 181 177 176 180 183 183 180 176 176
325 321 319 320 321 319 315 312 312 312 311 298 284 272 270 271 264 257 252 263 277 285 295 295 293 286 286 291 296 297 297 296 299 295 264 211 177 177 180 185 182 180 184 182 180 180 176 172 176 180 180 182 186 187 185 177 177 180 184 181 178 177
326 324 321 318 317 315 313 310 309 308 307 306 304 303 297 292 276 265 267 280 288 293 297 298 292 280 282 288 294 295 294 294 295 295 269 236 191 179 180 181 183 181 185 186 177 175 176 177 177 176 181 185 186 190 189 183 178 177 180 183 182 180
318 319 319 318 321 320 319 317 316 313 310 307 305 299 295 296 288 288 290 289 290 293 296 296 287 277 279 288 292 292 290 289 292 293 270 229 216 181 180 176 180 180 183 184 184 181 183 184 180 177 179 180 183 185 189 189 184 180 179 180 181 181
317 316 316 317 319 317 314 311 310 311 310 308 304 301 302 302 294 288 284 282 282 287 292 291 278 268 279 286 289 287 286 285 288 288 273 227 206 199 174 175 178 180 181 181 179 180 188 190 183 178 180 182 182 181 182 187 190 185 180 181 180 179
318 317 315 314 313 313 312 312 310 310 309 307 304 301 296 288 285 284 286 287 287 287 286 279 267 273 282 287 282 280 281 281 284 284 268 239 198 193 181 174 177 179 181 184 181 178 183 187 189 184 183 182 181 181 182 185 184 187 185 181 183 182
315 314 314 312 311 309 307 305 303 304 304 304 303 302 296 293 289 283 280 279 278 277 270 256 273 281 284 280 274 274 277 278 280 279 265 235 210 181 187 182 177 178 178 181 191 189 181 182 178 184 188 184 182 183 183 184 187 183 187 183 182 182
313 312 309 307 306 305 303 301 299 297 298 297 294 296 296 293 289 286 282 281 273 268 270 279 279 281 278 269 267 270 272 273 275 274 257 232 217 186 182 184 180 181 181 181 182 189 192 192 180 176 183 192 188 185 183 184 186 192 184 182 182 182
317 314 311 308 306 308 306 300 297 298 298 298 295 291 292 291 287 282 282 279 278 278 277 277 277 275 267 261 264 268 268 270 277 273 252 227 209 196 182 181 182 180 181 188 183 178 180 192 191 183 176 180 189 191 186 184 183 189 192 187 183 182
315 312 314 313 307 305 309 303 297 295 296 299 296 294 290 289 286 286 284 281 276 272 269 270 271 261 254 259 263 264 266 270 273 268 248 221 210 203 185 181 177 179 182 182 187 191 185 182 180 192 187 181 180 181 185 189 190 191 194 189 188 183
313 313 307 307 309 305 307 309 304 295 297 297 294 292 287 282 283 288 290 287 284 274 265 259 253 249 254 258 258 259 262 270 272 264 238 218 209 196 188 184 184 182 180 180 183 189 193 187 182 181 188 190 182 176 181 184 188 193 192 190 186 184
312 310 312 308 311 312 307 306 307 299 292 292 290 291 290 286 285 287 285 284 284 283 282 264 248 252 256 253 250 253 261 263 264 259 230 214 200 197 191 182 182 182 181 182 184 187 188 191 192 187 184 185 187 183 180 180 185 191 190 189 186 186
315 312 312 312 313 316 315 308 302 300 291 289 287 285 284 282 279 276 277 278 278 273 261 255 255 256 253 249 247 251 259 256 257 253 225 213 203 197 186 179 179 182 185 188 187 184 183 184 189 193 190 187 184 183 184 180 181 185 188 184 186 190
318 319 319 318 317 318 317 313 304 296 288 283 285 284 281 278 279 279 277 277 275 275 281 282 274 261 250 246 251 254 252 253 252 244 221 209 201 196 184 181 183 180 186 184 185 188 189 185 184 188 193 190 188 182 179 182 182 186 183 182 179 182
320 317 317 316 316 318 319 318 314 307 293 286 283 280 277 279 278 274 277 275 273 273 272 268 261 255 252 248 253 256 254 245 241 237 219 205 201 194 186 184 185 185 186 181 185 188 194 189 182 188 188 189 188 187 182 183 187 182 176 180 181 185
321 322 322 320 320 321 319 318 315 314 311 297 287 283 277 271 269 272 273 271 271 271 269 263 254 248 251 255 251 253 250 242 228 224 214 204 197 194 189 185 185 186 186 186 187 189 192 194 188 180 191 189 187 185 185 183 185 175 174 178 184 186
326 325 324 322 323 322 320 317 314 313 315 314 311 305 291 284 269 267 269 269 267 265 266 267 268 264 263 258 251 245 247 238 219 219 207 199 198 195 190 184 185 184 186 186 189 193 192 191 192 185 186 192 190 189 187 185 180 177 177 181 186 187
324 325 323 322 321 321 320 317 316 316 315 312 314 316 315 312 301 281 268 264 262 264 263 263 260 258 253 250 245 240 241 234 215 210 205 197 197 197 192 190 185 185 187 188 188 189 191 192 190 192 188 188 191 190 188 187 182 180 184 184 185 182
325 323 322 323 320 320 321 321 319 316 314 312 315 316 315 314 316 313 288 264 259 255 258 254 253 251 247 242 233 234 235 231 209 207 203 192 196 200 197 192 186 189 190 188 187 186 186 185 186 187 192 191 191 191 190 190 187 187 182 183 189 180
325 325 323 321 322 325 325 323 319 317 311 311 312 313 313 312 314 313 309 298 265 256 253 251 252 248 245 240 229 226 226 226 209 205 197 195 197 200 201 193 189 191 189 190 187 184 180 178 176 182 185 193 195 193 192 190 190 186 186 185 177 180
330 326 322 322 326 330 327 322 320 312 307 309 308 308 305 307 307 306 304 301 301 279 257 252 253 254 249 237 233 225 225 220 213 203 204 198 197 198 199 197 192 191 191 190 186 178 172 175 179 179 180 186 190 196 194 191 191 186 181 182 177 174
327 325 326 328 329 329 323 322 318 314 314 313 314 312 310 311 308 303 300 296 293 290 278 261 249 249 252 242 223 225 224 222 211 211 208 202 199 196 199 198 196 193 191 189 177 170 171 179 182 183 181 182 183 187 186 191 188 182 183 178 162 159
324 326 328 327 329 322 323 321 322 320 320 318 315 310 308 305 305 301 292 289 285 278 273 261 257 245 244 242 232 222 220 213 212 216 216 209 199 199 197 195 200 194 189 181 177 175 183 182 189 194 176 172 176 178 181 185 186 182 180 178 164 154
326 325 327 328 325 326 327 331 325 320 321 316 316 314 309 305 301 295 288 283 280 279 275 263 248 243 238 238 235 232 230 225 217 211 212 212 203 203 201 191 193 184 179 185 192 184 184 190 174 141 167 179 183 186 186 185 181 181 180 174 168 164
327 325 333 333 332 329 333 331 321 329 328 330 321 310 303 297 293 289 284 278 272 267 270 265 256 243 239 232 232 231 230 230 225 221 216 210 197 199 204 199 187 170 179 180 176 176 175 155 158 172 183 184 187 188 187 184 182 180 177 165 158 167
328 328 330 334 333 330 331 326 330 333 331 324 312 307 301 292 280 282 274 270 257 260 260 262 254 250 240 236 225 223 221 217 213 217 219 214 197 193 198 200 193 185 181 181 176 166 170 166 169 173 177 184 187 189 188 186 182 178 171 168 166 171
322 321 331 330 325 323 326 330 326 331 322 315 316 313 300 286 302 311 317 331 306 261 262 260 259 249 245 237 223 215 209 206 200 196 191 207 200 190 191 194 195 189 185 184 183 175 172 168 168 173 179 181 185 186 186 183 182 178 172 165 173 188
318 327 325 325 328 324 333 333 331 326 324 324 324 330 341 336 334 336 341 340 336 317 273 262 251 246 241 230 219 210 197 199 194 187 175 163 156 182 201 201 197 191 185 185 177 171 168 165 167 171 176 179 182 184 184 181 182 180 174 176 187 188
319 323 330 331 330 335 329 333 334 336 331 329 333 340 332 339 342 345 343 346 347 342 338 316 280 270 235 216 196 189 177 178 166 161 159 162 164 164 168 169 186 183 173 175 172 168 165 163 166 170 174 176 178 179 176 171 171 178 184 191 196 192
327 331 333 337 337 332 342 339 340 336 332 337 341 351 348 337 342 346 348 345 344 347 350 355 357 358 17 46 80 94 107 104 111 114 114 112 120 122 121 106 118 121 163 163 163 164 161 160 165 169 172 175 176 175 168 174 185 182 184 188 193 195